| time (UTC) | temp C | wind direction | speed KPH | gust KPH | rain 1hr cm | rain 24hr cm | rain mn cm | humidity % | barometer mb |
| 20260507192507 | 16 | 270 | 4.8 | 14.5 | 0.00 | 0.46 | 0.25 | 31 | 1005.8 |
| 20260507192007 | 16 | 270 | 8.0 | 14.5 | 0.00 | 0.46 | 0.25 | 34 | 1005.8 |
| 20260507191504 | 16 | 309 | 8.0 | 12.9 | 0.00 | 0.46 | 0.25 | 33 | 1005.8 |
| 20260507191003 | 16 | 293 | 6.4 | 14.5 | 0.00 | 0.48 | 0.25 | 32 | 1005.9 |
| 20260507190503 | 16 | 264 | 8.0 | 14.5 | 0.00 | 0.48 | 0.25 | 31 | 1005.9 |
| 20260507190008 | 16 | 351 | 4.8 | 11.3 | 0.00 | 0.48 | 0.25 | 34 | 1005.9 |
| 20260507185503 | 16 | 274 | 8.0 | 12.9 | 0.00 | 0.48 | 0.25 | 32 | 1006.1 |
| 20260507185004 | 16 | 277 | 8.0 | 12.9 | 0.00 | 0.48 | 0.25 | 31 | 1006.0 |
| 20260507184512 | 16 | 291 | 4.8 | 12.9 | 0.00 | 0.48 | 0.25 | 32 | 1006.0 |
| 20260507184004 | 16 | 281 | 8.0 | 16.1 | 0.00 | 0.48 | 0.25 | 33 | 1006.0 |
| 20260507183503 | 16 | 286 | 8.0 | 16.1 | 0.00 | 0.48 | 0.25 | 31 | 1006.1 |
| 20260507183020 | 16 | 266 | 9.7 | 14.5 | 0.00 | 0.48 | 0.25 | 31 | 1006.2 |
| 20260507182508 | 16 | 278 | 4.8 | 11.3 | 0.00 | 0.48 | 0.25 | 34 | 1006.1 |
| 20260507182011 | 16 | 266 | 6.4 | 11.3 | 0.00 | 0.48 | 0.25 | 31 | 1006.1 |
| 20260507181522 | 16 | 287 | 4.8 | 11.3 | 0.00 | 0.48 | 0.25 | 32 | 1006.3 |
| 20260507181011 | 16 | 272 | 4.8 | 11.3 | 0.00 | 0.48 | 0.25 | 38 | 1006.2 |
| 20260507180508 | 16 | 258 | 6.4 | 11.3 | 0.00 | 0.48 | 0.25 | 32 | 1006.4 |
| 20260507180006 | 16 | 1 | 3.2 | 9.7 | 0.00 | 0.48 | 0.25 | 33 | 1006.4 |
| 20260507175503 | 16 | 266 | 6.4 | 9.7 | 0.00 | 0.48 | 0.25 | 35 | 1006.4 |
| 20260507175006 | 16 | 311 | 3.2 | 12.9 | 0.00 | 0.48 | 0.25 | 39 | 1006.4 |
| 20260507174511 | 16 | 297 | 4.8 | 14.5 | 0.00 | 0.48 | 0.25 | 37 | 1006.5 |
| 20260507174004 | 16 | 274 | 6.4 | 14.5 | 0.00 | 0.48 | 0.25 | 37 | 1006.4 |
| 20260507173506 | 16 | 300 | 4.8 | 11.3 | 0.00 | 0.48 | 0.25 | 36 | 1006.4 |
| 20260507173041 | 16 | 266 | 6.4 | 11.3 | 0.00 | 0.48 | 0.25 | 39 | 1006.3 |
| 20260507172506 | 16 | 266 | 3.2 | 12.9 | 0.00 | 0.48 | 0.25 | 40 | 1006.4 |
| 20260507172007 | 16 | 270 | 3.2 | 14.5 | 0.00 | 0.48 | 0.25 | 36 | 1006.3 |
| 20260507171526 | 15 | 275 | 8.0 | 14.5 | 0.00 | 0.48 | 0.25 | 38 | 1006.4 |
| 20260507171007 | 15 | 294 | 6.4 | 12.9 | 0.00 | 0.48 | 0.25 | 38 | 1006.4 |
| 20260507170510 | 15 | 279 | 3.2 | 12.9 | 0.00 | 0.48 | 0.25 | 38 | 1006.6 |
| 20260507170026 | 15 | 275 | 3.2 | 8.0 | 0.00 | 0.48 | 0.25 | 40 | 1006.7 |
| 20260507165507 | 15 | 312 | 4.8 | 9.7 | 0.00 | 0.48 | 0.25 | 39 | 1006.7 |
| 20260507165003 | 15 | 279 | 4.8 | 11.3 | 0.00 | 0.48 | 0.25 | 39 | 1006.9 |
| 20260507164527 | 15 | 271 | 6.4 | 12.9 | 0.00 | 0.48 | 0.25 | 45 | 1006.9 |
| 20260507164006 | 15 | 275 | 6.4 | 12.9 | 0.00 | 0.48 | 0.25 | 40 | 1006.9 |
| 20260507163505 | 15 | 338 | 4.8 | 12.9 | 0.00 | 0.48 | 0.25 | 43 | 1006.9 |
| 20260507163013 | 15 | 320 | 8.0 | 12.9 | 0.00 | 0.48 | 0.25 | 43 | 1007.0 |
| 20260507162505 | 15 | 280 | 4.8 | 12.9 | 0.00 | 0.48 | 0.25 | 42 | 1007.0 |
| 20260507162007 | 15 | 278 | 4.8 | 12.9 | 0.00 | 0.48 | 0.25 | 41 | 1007.0 |
| 20260507161523 | 15 | 290 | 8.0 | 11.3 | 0.00 | 0.48 | 0.25 | 45 | 1007.0 |
| 20260507161006 | 15 | 264 | 6.4 | 11.3 | 0.00 | 0.48 | 0.25 | 44 | 1007.0 |
| 20260507160506 | 15 | 268 | 4.8 | 12.9 | 0.00 | 0.48 | 0.25 | 47 | 1007.0 |
| 20260507160023 | 15 | 293 | 6.4 | 12.9 | 0.00 | 0.48 | 0.25 | 43 | 1007.2 |
| 20260507155508 | 15 | 298 | 6.4 | 12.9 | 0.00 | 0.48 | 0.25 | 47 | 1007.2 |
| 20260507155008 | 15 | 338 | 3.2 | 8.0 | 0.00 | 0.48 | 0.25 | 45 | 1007.2 |
| 20260507154528 | 15 | 271 | 4.8 | 8.0 | 0.00 | 0.48 | 0.25 | 50 | 1007.3 |
| 20260507154010 | 14 | 278 | 4.8 | 8.0 | 0.00 | 0.48 | 0.25 | 49 | 1007.2 |
| 20260507153502 | 15 | 5 | 3.2 | 8.0 | 0.00 | 0.48 | 0.25 | 49 | 1007.2 |
| 20260507153011 | 15 | 297 | 4.8 | 12.9 | 0.00 | 0.48 | 0.25 | 52 | 1007.3 |
| 20260507152508 | 14 | 284 | 4.8 | 12.9 | 0.00 | 0.48 | 0.25 | 51 | 1007.3 |
| 20260507152002 | 14 | 274 | 4.8 | 8.0 | 0.00 | 0.48 | 0.25 | 55 | 1007.4 |
| 20260507151514 | 13 | 266 | 3.2 | 9.7 | 0.00 | 0.48 | 0.25 | 57 | 1007.4 |
| 20260507151003 | 13 | 313 | 3.2 | 9.7 | 0.00 | 0.48 | 0.25 | 56 | 1007.4 |
| 20260507150507 | 14 | 305 | 3.2 | 6.4 | 0.00 | 0.48 | 0.25 | 55 | 1007.5 |
| 20260507150021 | 13 | 323 | 3.2 | 11.3 | 0.00 | 0.48 | 0.25 | 56 | 1007.6 |
| 20260507145509 | 13 | 290 | 6.4 | 11.3 | 0.00 | 0.48 | 0.25 | 59 | 1007.6 |
| 20260507145002 | 13 | 288 | 4.8 | 9.7 | 0.00 | 0.48 | 0.25 | 58 | 1007.7 |
| 20260507144505 | 13 | 267 | 6.4 | 9.7 | 0.00 | 0.48 | 0.25 | 61 | 1007.7 |
| 20260507144004 | 14 | 260 | 6.4 | 9.7 | 0.00 | 0.48 | 0.25 | 58 | 1007.8 |
| 20260507143503 | 14 | 291 | 1.6 | 8.0 | 0.00 | 0.48 | 0.25 | 59 | 1007.7 |
| 20260507143006 | 13 | 274 | 3.2 | 8.0 | 0.00 | 0.48 | 0.25 | 60 | 1007.8 |
| 20260507142503 | 13 | 293 | 3.2 | 8.0 | 0.00 | 0.48 | 0.25 | 60 | 1007.9 |
| 20260507142007 | 13 | 296 | 4.8 | 8.0 | 0.00 | 0.48 | 0.25 | 60 | 1007.9 |
| 20260507141505 | 13 | 249 | 4.8 | 8.0 | 0.00 | 0.48 | 0.25 | 60 | 1007.8 |
| 20260507141003 | 13 | 259 | 4.8 | 8.0 | 0.00 | 0.48 | 0.25 | 59 | 1007.9 |
| 20260507140502 | 13 | 305 | 3.2 | 4.8 | 0.00 | 0.48 | 0.25 | 60 | 1007.8 |
| 20260507140007 | 13 | 356 | 3.2 | 4.8 | 0.00 | 0.48 | 0.25 | 62 | 1007.9 |
| 20260507135503 | 13 | 286 | 1.6 | 4.8 | 0.00 | 0.48 | 0.25 | 64 | 1007.9 |
| 20260507135003 | 12 | 352 | 3.2 | 4.8 | 0.00 | 0.48 | 0.25 | 65 | 1007.9 |
| 20260507134508 | 12 | 298 | 3.2 | 6.4 | 0.00 | 0.48 | 0.25 | 64 | 1007.9 |
| 20260507134005 | 12 | 271 | 3.2 | 6.4 | 0.00 | 0.48 | 0.25 | 65 | 1007.8 |
| 20260507133504 | 12 | 294 | 1.6 | 4.8 | 0.00 | 0.48 | 0.25 | 66 | 1007.9 |
| 20260507133006 | 12 | 283 | 3.2 | 8.0 | 0.00 | 0.48 | 0.25 | 68 | 1007.8 |
| 20260507132503 | 12 | 282 | 3.2 | 8.0 | 0.00 | 0.48 | 0.25 | 68 | 1007.9 |
| 20260507132003 | 12 | 283 | 3.2 | 6.4 | 0.00 | 0.48 | 0.25 | 70 | 1008.0 |
| 20260507131508 | 12 | 350 | 1.6 | 6.4 | 0.00 | 0.48 | 0.25 | 73 | 1008.0 |
| 20260507131003 | 12 | 258 | 1.6 | 6.4 | 0.00 | 0.48 | 0.25 | 73 | 1008.1 |
| 20260507130505 | 11 | 308 | 3.2 | 4.8 | 0.00 | 0.48 | 0.25 | 75 | 1008.1 |
| 20260507130008 | 11 | 336 | 1.6 | 4.8 | 0.00 | 0.48 | 0.25 | 78 | 1008.1 |
| 20260507125504 | 11 | 311 | 1.6 | 4.8 | 0.00 | 0.48 | 0.25 | 77 | 1008.1 |
| 20260507125004 | 11 | 18 | 1.6 | 4.8 | 0.00 | 0.48 | 0.25 | 80 | 1008.1 |
| 20260507124510 | 11 | 290 | 1.6 | 4.8 | 0.00 | 0.48 | 0.25 | 80 | 1008.2 |
| 20260507124003 | 11 | 267 | 1.6 | 4.8 | 0.00 | 0.48 | 0.25 | 81 | 1008.3 |
| 20260507123503 | 10 | 1 | 1.6 | 4.8 | 0.00 | 0.48 | 0.25 | 81 | 1008.3 |
| 20260507123010 | 10 | 276 | 1.6 | 4.8 | 0.00 | 0.48 | 0.25 | 83 | 1008.4 |
| 20260507122503 | 10 | 347 | 1.6 | 4.8 | 0.00 | 0.48 | 0.25 | 84 | 1008.4 |
| 20260507122006 | 10 | 293 | 1.6 | 4.8 | 0.00 | 0.48 | 0.25 | 85 | 1008.4 |
| 20260507121511 | 10 | 276 | 1.6 | 4.8 | 0.00 | 0.48 | 0.25 | 85 | 1008.2 |
| 20260507121004 | 10 | 281 | 1.6 | 4.8 | 0.00 | 0.48 | 0.25 | 86 | 1008.2 |
| 20260507120505 | 10 | 260 | 3.2 | 4.8 | 0.00 | 0.48 | 0.25 | 86 | 1008.3 |
| 20260507120007 | 10 | 287 | 1.6 | 3.2 | 0.00 | 0.48 | 0.25 | 86 | 1008.1 |
| 20260507115503 | 10 | 283 | 0.0 | 3.2 | 0.00 | 0.48 | 0.25 | 87 | 1008.1 |
| 20260507115008 | 9 | 283 | 0.0 | 3.2 | 0.00 | 0.48 | 0.25 | 87 | 1008.1 |
| 20260507114511 | 9 | 283 | 0.0 | 3.2 | 0.00 | 0.48 | 0.25 | 87 | 1008.2 |
| 20260507114004 | 9 | 276 | 1.6 | 3.2 | 0.00 | 0.48 | 0.25 | 88 | 1008.2 |
| 20260507113504 | 9 | 295 | 0.0 | 3.2 | 0.00 | 0.48 | 0.25 | 89 | 1008.3 |
| 20260507113013 | 9 | 295 | 0.0 | 3.2 | 0.00 | 0.48 | 0.25 | 88 | 1008.1 |
| 20260507112508 | 9 | 297 | 1.6 | 1.6 | 0.00 | 0.48 | 0.25 | 89 | 1008.1 |
| 20260507112004 | 9 | 298 | 1.6 | 3.2 | 0.00 | 0.48 | 0.25 | 89 | 1008.0 |
| 20260507111507 | 9 | 282 | 1.6 | 3.2 | 0.00 | 0.48 | 0.25 | 89 | 1008.0 |
| 20260507111004 | 9 | 282 | 0.0 | 1.6 | 0.00 | 0.48 | 0.25 | 90 | 1008.0 |
| 20260507110508 | 8 | 282 | 0.0 | 3.2 | 0.03 | 0.48 | 0.25 | 90 | 1007.9 |
| 20260507110011 | 8 | 286 | 1.6 | 3.2 | 0.03 | 0.48 | 0.25 | 91 | 1007.8 |
| 20260507105505 | 8 | 276 | 1.6 | 3.2 | 0.03 | 0.48 | 0.25 | 92 | 1007.7 |
| 20260507105003 | 8 | 226 | 0.0 | 0.0 | 0.03 | 0.48 | 0.25 | 91 | 1007.6 |
| 20260507104511 | 8 | 226 | 0.0 | 0.0 | 0.03 | 0.48 | 0.25 | 91 | 1007.8 |
| 20260507104004 | 8 | 226 | 0.0 | 0.0 | 0.03 | 0.48 | 0.25 | 91 | 1007.9 |
| 20260507103502 | 8 | 226 | 0.0 | 0.0 | 0.05 | 0.48 | 0.25 | 91 | 1008.1 |
| 20260507103008 | 8 | 226 | 0.0 | 3.2 | 0.05 | 0.48 | 0.25 | 91 | 1008.0 |
| 20260507102503 | 8 | 232 | 0.0 | 3.2 | 0.08 | 0.48 | 0.25 | 91 | 1008.1 |
| 20260507102003 | 8 | 248 | 0.0 | 3.2 | 0.10 | 0.48 | 0.25 | 91 | 1007.9 |
| 20260507101509 | 8 | 248 | 0.0 | 0.0 | 0.10 | 0.48 | 0.25 | 91 | 1007.7 |
| 20260507101004 | 8 | 248 | 0.0 | 0.0 | 0.10 | 0.48 | 0.25 | 90 | 1007.5 |
| 20260507100506 | 8 | 248 | 0.0 | 0.0 | 0.10 | 0.46 | 0.23 | 90 | 1007.5 |
| 20260507100005 | 8 | 248 | 0.0 | 3.2 | 0.15 | 0.46 | 0.23 | 90 | 1007.5 |
| 20260507095504 | 8 | 248 | 0.0 | 3.2 | 0.18 | 0.46 | 0.23 | 89 | 1007.6 |
| 20260507095008 | 8 | 257 | 0.0 | 0.0 | 0.20 | 0.46 | 0.23 | 89 | 1007.3 |
| 20260507094513 | 8 | 267 | 0.0 | 3.2 | 0.20 | 0.46 | 0.23 | 89 | 1007.4 |
| 20260507094005 | 8 | 267 | 0.0 | 3.2 | 0.20 | 0.46 | 0.23 | 89 | 1007.3 |
| 20260507093505 | 8 | 276 | 0.0 | 3.2 | 0.20 | 0.43 | 0.20 | 88 | 1007.2 |
| 20260507093017 | 8 | 276 | 0.0 | 3.2 | 0.20 | 0.43 | 0.20 | 88 | 1007.2 |
| 20260507092504 | 8 | 295 | 1.6 | 3.2 | 0.18 | 0.41 | 0.18 | 88 | 1007.4 |
| 20260507092006 | 8 | 263 | 1.6 | 3.2 | 0.15 | 0.38 | 0.15 | 88 | 1007.2 |
| 20260507091524 | 8 | 280 | 1.6 | 3.2 | 0.15 | 0.38 | 0.15 | 87 | 1007.2 |
| 20260507091003 | 9 | 287 | 1.6 | 3.2 | 0.15 | 0.38 | 0.15 | 87 | 1007.4 |
| 20260507090503 | 9 | 285 | 1.6 | 4.8 | 0.13 | 0.36 | 0.13 | 86 | 1007.4 |
| 20260507090017 | 9 | 295 | 1.6 | 4.8 | 0.08 | 0.30 | 0.08 | 85 | 1007.6 |
| 20260507085503 | 9 | 269 | 3.2 | 4.8 | 0.05 | 0.28 | 0.05 | 85 | 1007.6 |
| 20260507085004 | 9 | 281 | 3.2 | 4.8 | 0.03 | 0.25 | 0.03 | 84 | 1007.6 |
| 20260507084509 | 10 | 284 | 3.2 | 3.2 | 0.03 | 0.25 | 0.03 | 85 | 1007.6 |
| 20260507084004 | 10 | 297 | 1.6 | 4.8 | 0.03 | 0.25 | 0.03 | 85 | 1007.6 |
| 20260507083505 | 9 | 286 | 1.6 | 4.8 | 0.00 | 0.23 | 0.00 | 84 | 1007.6 |
| 20260507083013 | 10 | 275 | 3.2 | 4.8 | 0.00 | 0.23 | 0.00 | 83 | 1007.4 |
| 20260507082503 | 10 | 293 | 3.2 | 4.8 | 0.00 | 0.23 | 0.00 | 83 | 1007.5 |
| 20260507082010 | 10 | 290 | 3.2 | 4.8 | 0.00 | 0.23 | 0.00 | 83 | 1007.5 |
| 20260507081522 | 10 | 288 | 3.2 | 4.8 | 0.00 | 0.23 | 0.00 | 82 | 1007.4 |
| 20260507081005 | 10 | 292 | 3.2 | 8.0 | 0.00 | 0.23 | 0.00 | 81 | 1007.2 |
| 20260507080506 | 10 | 292 | 1.6 | 8.0 | 0.00 | 0.23 | 0.00 | 81 | 1007.3 |
| 20260507080015 | 10 | 283 | 3.2 | 8.0 | 0.00 | 0.23 | 0.00 | 80 | 1007.5 |
| 20260507075503 | 10 | 293 | 3.2 | 6.4 | 0.00 | 0.23 | 0.00 | 81 | 1007.5 |
| 20260507075004 | 10 | 283 | 4.8 | 6.4 | 0.00 | 0.23 | 0.00 | 82 | 1007.3 |
| 20260507074514 | 11 | 282 | 4.8 | 6.4 | 0.00 | 0.23 | 0.00 | 81 | 1007.4 |
| 20260507074007 | 11 | 270 | 3.2 | 4.8 | 0.00 | 0.23 | 0.00 | 80 | 1007.2 |
| 20260507073506 | 11 | 286 | 3.2 | 6.4 | 0.00 | 0.23 | 0.00 | 80 | 1007.1 |
| 20260507073014 | 11 | 285 | 4.8 | 8.0 | 0.00 | 0.23 | 0.00 | 79 | 1007.3 |
| 20260507072504 | 11 | 291 | 4.8 | 8.0 | 0.00 | 0.23 | 0.00 | 78 | 1007.2 |
| 20260507072008 | 12 | 292 | 1.6 | 3.2 | 0.00 | 0.23 | 0.00 | 79 | 1006.9 |
| 20260507071517 | 12 | 316 | 1.6 | 4.8 | 0.00 | 0.23 | 0.00 | 79 | 1006.7 |
| 20260507071005 | 12 | 278 | 1.6 | 4.8 | 0.00 | 0.23 | 0.00 | 78 | 1006.5 |
| 20260507070506 | 12 | 295 | 1.6 | 6.4 | 0.00 | 0.23 | 0.00 | 79 | 1006.3 |
| 20260507070018 | 12 | 302 | 3.2 | 6.4 | 0.00 | 0.23 | 0.00 | 78 | 1006.4 |
| 20260507065506 | 12 | 284 | 1.6 | 4.8 | 0.00 | 0.23 | 0.00 | 80 | 1006.5 |
| 20260507065005 | 12 | 297 | 1.6 | 4.8 | 0.00 | 0.23 | 0.00 | 80 | 1006.4 |
| 20260507064517 | 12 | 310 | 1.6 | 4.8 | 0.00 | 0.23 | 0.00 | 80 | 1006.5 |
| 20260507064006 | 12 | 263 | 3.2 | 6.4 | 0.00 | 0.23 | 0.00 | 79 | 1006.4 |
| 20260507063508 | 12 | 298 | 1.6 | 6.4 | 0.00 | 0.23 | 0.00 | 79 | 1006.5 |
| 20260507063017 | 12 | 297 | 1.6 | 6.4 | 0.00 | 0.23 | 0.00 | 79 | 1006.8 |
| 20260507062507 | 12 | 301 | 1.6 | 8.0 | 0.00 | 0.23 | 0.00 | 78 | 1006.7 |
| 20260507062004 | 12 | 309 | 3.2 | 8.0 | 0.00 | 0.23 | 0.00 | 78 | 1006.6 |
| 20260507061515 | 12 | 309 | 4.8 | 8.0 | 0.00 | 0.23 | 0.00 | 79 | 1006.4 |
| 20260507061004 | 12 | 281 | 3.2 | 4.8 | 0.00 | 0.23 | 0.00 | 79 | 1006.4 |
| 20260507060503 | 12 | 296 | 1.6 | 4.8 | 0.00 | 0.23 | 0.00 | 80 | 1006.3 |
| 20260507060015 | 13 | 269 | 3.2 | 4.8 | 0.00 | 0.23 | 0.00 | 80 | 1006.3 |
| 20260507055508 | 13 | 285 | 1.6 | 6.4 | 0.00 | 0.23 | 0.00 | 81 | 1006.5 |
| 20260507055004 | 13 | 276 | 3.2 | 6.4 | 0.00 | 0.23 | 0.00 | 80 | 1006.7 |
| 20260507054511 | 13 | 271 | 3.2 | 6.4 | 0.00 | 0.23 | 0.00 | 80 | 1006.6 |
| 20260507054003 | 13 | 298 | 3.2 | 6.4 | 0.00 | 0.23 | 0.00 | 80 | 1006.7 |
| 20260507053503 | 13 | 280 | 3.2 | 8.0 | 0.00 | 0.23 | 0.00 | 80 | 1006.7 |
| 20260507053009 | 13 | 290 | 4.8 | 9.7 | 0.00 | 0.23 | 0.00 | 79 | 1007.1 |
| 20260507052502 | 13 | 288 | 6.4 | 9.7 | 0.00 | 0.23 | 0.00 | 79 | 1006.9 |
| 20260507052006 | 13 | 276 | 3.2 | 4.8 | 0.00 | 0.23 | 0.00 | 79 | 1006.8 |
| 20260507051512 | 13 | 277 | 3.2 | 4.8 | 0.00 | 0.23 | 0.00 | 80 | 1006.9 |
| 20260507051004 | 13 | 281 | 1.6 | 6.4 | 0.00 | 0.23 | 0.00 | 81 | 1006.7 |
| 20260507050503 | 13 | 304 | 3.2 | 6.4 | 0.00 | 0.23 | 0.00 | 82 | 1006.6 |
| 20260507050008 | 14 | 288 | 3.2 | 4.8 | 0.00 | 0.23 | 0.00 | 83 | 1006.6 |
| 20260507045504 | 14 | 10 | 1.6 | 6.4 | 0.00 | 0.23 | 0.00 | 85 | 1006.6 |
| 20260507045004 | 14 | 294 | 3.2 | 6.4 | 0.00 | 0.23 | 0.00 | 85 | 1006.6 |
| 20260507044527 | 14 | 287 | 3.2 | 4.8 | 0.00 | 0.23 | 0.00 | 85 | 1006.7 |
| 20260507044003 | 15 | 300 | 3.2 | 6.4 | 0.00 | 0.23 | 0.00 | 85 | 1006.7 |
| 20260507043503 | 15 | 295 | 4.8 | 6.4 | 0.00 | 0.23 | 0.00 | 85 | 1006.6 |
| 20260507043010 | 15 | 290 | 3.2 | 6.4 | 0.00 | 0.23 | 0.00 | 86 | 1006.6 |
| 20260507042503 | 15 | 287 | 3.2 | 8.0 | 0.00 | 0.23 | 0.00 | 86 | 1006.5 |
| 20260507042002 | 15 | 279 | 3.2 | 8.0 | 0.00 | 0.23 | 0.00 | 87 | 1006.5 |
| 20260507041510 | 15 | 266 | 3.2 | 8.0 | 0.00 | 0.23 | 0.00 | 88 | 1006.6 |
| 20260507041004 | 15 | 292 | 3.2 | 6.4 | 0.00 | 0.23 | 0.00 | 89 | 1006.5 |
| 20260507040503 | 15 | 286 | 1.6 | 3.2 | 0.00 | 0.23 | 0.00 | 90 | 1006.6 |
| 20260507040011 | 15 | 268 | 1.6 | 3.2 | 0.00 | 0.23 | 0.00 | 90 | 1006.7 |
| 20260507035504 | 15 | 285 | 1.6 | 3.2 | 0.00 | 0.23 | 0.23 | 90 | 1006.8 |
| 20260507035002 | 15 | 288 | 1.6 | 3.2 | 0.00 | 0.23 | 0.23 | 90 | 1006.8 |
| 20260507034514 | 15 | 296 | 1.6 | 3.2 | 0.00 | 0.23 | 0.23 | 90 | 1006.8 |
| 20260507034003 | 15 | 217 | 1.6 | 3.2 | 0.00 | 0.23 | 0.23 | 91 | 1006.7 |
| 20260507033503 | 15 | 253 | 1.6 | 4.8 | 0.00 | 0.23 | 0.23 | 91 | 1006.6 |
| 20260507033010 | 15 | 222 | 0.0 | 4.8 | 0.00 | 0.23 | 0.23 | 91 | 1006.4 |
| 20260507032504 | 15 | 295 | 0.0 | 3.2 | 0.00 | 0.23 | 0.23 | 91 | 1006.4 |
| 20260507032004 | 15 | 311 | 0.0 | 3.2 | 0.00 | 0.23 | 0.23 | 91 | 1006.4 |
| 20260507031515 | 15 | 262 | 0.0 | 3.2 | 0.00 | 0.23 | 0.23 | 91 | 1006.5 |
| 20260507031004 | 15 | 321 | 0.0 | 3.2 | 0.00 | 0.23 | 0.23 | 91 | 1006.3 |
| 20260507030506 | 15 | 265 | 0.0 | 3.2 | 0.00 | 0.23 | 0.23 | 91 | 1006.2 |
| 20260507030012 | 15 | 193 | 0.0 | 3.2 | 0.00 | 0.23 | 0.23 | 91 | 1006.1 |
| 20260507025503 | 15 | 8 | 0.0 | 4.8 | 0.00 | 0.23 | 0.23 | 91 | 1006.1 |
| 20260507025003 | 15 | 63 | 0.0 | 4.8 | 0.00 | 0.23 | 0.23 | 91 | 1006.2 |
| 20260507024515 | 15 | 248 | 0.0 | 3.2 | 0.00 | 0.23 | 0.23 | 91 | 1006.0 |
| 20260507024003 | 15 | 282 | 0.0 | 3.2 | 0.00 | 0.23 | 0.23 | 91 | 1005.8 |
| 20260507023504 | 15 | 186 | 0.0 | 3.2 | 0.00 | 0.23 | 0.23 | 91 | 1006.0 |
| 20260507023012 | 14 | 280 | 1.6 | 3.2 | 0.00 | 0.23 | 0.23 | 91 | 1006.1 |
| 20260507022504 | 14 | 306 | 0.0 | 4.8 | 0.00 | 0.23 | 0.23 | 91 | 1006.2 |
| 20260507022005 | 14 | 179 | 1.6 | 4.8 | 0.00 | 0.23 | 0.23 | 91 | 1006.0 |
| 20260507021519 | 14 | 265 | 1.6 | 4.8 | 0.00 | 0.23 | 0.23 | 91 | 1005.9 |
| 20260507021002 | 14 | 139 | 0.0 | 4.8 | 0.00 | 0.23 | 0.23 | 91 | 1005.9 |
| 20260507020508 | 14 | 212 | 1.6 | 3.2 | 0.00 | 0.23 | 0.23 | 92 | 1006.0 |
| 20260507020016 | 14 | 217 | 0.0 | 8.0 | 0.00 | 0.23 | 0.23 | 91 | 1006.1 |
| 20260507015503 | 14 | 229 | 1.6 | 8.0 | 0.00 | 0.23 | 0.23 | 91 | 1006.1 |
| 20260507015003 | 14 | 233 | 0.0 | 6.4 | 0.00 | 0.23 | 0.23 | 92 | 1006.1 |
| 20260507014515 | 14 | 343 | 0.0 | 6.4 | 0.00 | 0.23 | 0.23 | 91 | 1005.9 |
| 20260507014003 | 14 | 181 | 0.0 | 4.8 | 0.00 | 0.23 | 0.23 | 91 | 1005.9 |
| 20260507013504 | 14 | 199 | 0.0 | 6.4 | 0.00 | 0.23 | 0.23 | 91 | 1005.9 |
| 20260507013013 | 14 | 173 | 1.6 | 6.4 | 0.00 | 0.23 | 0.23 | 92 | 1006.1 |
| 20260507012503 | 14 | 163 | 0.0 | 3.2 | 0.00 | 0.23 | 0.23 | 91 | 1006.2 |
| 20260507012006 | 14 | 116 | 0.0 | 3.2 | 0.00 | 0.23 | 0.23 | 92 | 1006.2 |
| 20260507011515 | 14 | 196 | 0.0 | 3.2 | 0.00 | 0.23 | 0.23 | 91 | 1006.4 |
| 20260507011007 | 14 | 126 | 0.0 | 4.8 | 0.00 | 0.23 | 0.23 | 91 | 1006.4 |
| 20260507010507 | 14 | 186 | 1.6 | 4.8 | 0.03 | 0.23 | 0.23 | 91 | 1006.5 |
| 20260507010020 | 14 | 239 | 0.0 | 8.0 | 0.03 | 0.23 | 0.23 | 91 | 1006.4 |
| 20260507005503 | 14 | 227 | 1.6 | 8.0 | 0.03 | 0.23 | 0.23 | 91 | 1006.4 |
| 20260507005008 | 14 | 178 | 1.6 | 4.8 | 0.03 | 0.23 | 0.23 | 91 | 1006.5 |
| 20260507004512 | 14 | 128 | 0.0 | 8.0 | 0.03 | 0.23 | 0.23 | 91 | 1006.4 |
| 20260507004003 | 14 | 158 | 1.6 | 8.0 | 0.03 | 0.23 | 0.23 | 91 | 1006.5 |
| 20260507003508 | 14 | 313 | 1.6 | 6.4 | 0.03 | 0.23 | 0.23 | 91 | 1006.4 |
| 20260507003021 | 14 | 360 | 0.0 | 4.8 | 0.05 | 0.23 | 0.23 | 91 | 1006.3 |
| 20260507002505 | 14 | 56 | 0.0 | 4.8 | 0.05 | 0.23 | 0.23 | 91 | 1006.3 |
| 20260507002008 | 14 | 115 | 0.0 | 4.8 | 0.05 | 0.23 | 0.23 | 91 | 1006.2 |
| 20260507001522 | 14 | 226 | 0.0 | 12.9 | 0.08 | 0.23 | 0.23 | 91 | 1006.2 |
| 20260507001007 | 14 | 299 | 0.0 | 12.9 | 0.08 | 0.23 | 0.23 | 91 | 1006.1 |
| 20260507000507 | 14 | 139 | 1.6 | 6.4 | 0.08 | 0.20 | 0.20 | 91 | 1006.0 |
| 20260507000016 | 14 | 189 | 0.0 | 6.4 | 0.10 | 0.20 | 0.20 | 91 | 1006.0 |
| 20260506235508 | 14 | 218 | 0.0 | 6.4 | 0.10 | 0.20 | 0.20 | 91 | 1005.9 |
| 20260506235008 | 14 | 200 | 1.6 | 4.8 | 0.10 | 0.20 | 0.20 | 91 | 1006.0 |
| 20260506234521 | 14 | 180 | 1.6 | 6.4 | 0.10 | 0.20 | 0.20 | 91 | 1006.0 |
| 20260506234007 | 14 | 199 | 0.0 | 9.7 | 0.10 | 0.20 | 0.20 | 91 | 1005.9 |
| 20260506233507 | 14 | 302 | 1.6 | 9.7 | 0.10 | 0.20 | 0.20 | 91 | 1005.9 |
| 20260506233016 | 14 | 12 | 1.6 | 3.2 | 0.08 | 0.18 | 0.18 | 90 | 1006.0 |
| 20260506232504 | 14 | 40 | 0.0 | 3.2 | 0.08 | 0.18 | 0.18 | 90 | 1005.9 |
| 20260506232005 | 15 | 11 | 0.0 | 6.4 | 0.08 | 0.18 | 0.18 | 90 | 1005.9 |
| 20260506231518 | 15 | 247 | 1.6 | 6.4 | 0.05 | 0.15 | 0.15 | 90 | 1005.9 |
| 20260506231007 | 15 | 95 | 0.0 | 6.4 | 0.05 | 0.15 | 0.15 | 90 | 1005.9 |
| 20260506230506 | 15 | 283 | 1.6 | 9.7 | 0.03 | 0.13 | 0.13 | 90 | 1006.0 |
| 20260506230021 | 15 | 186 | 1.6 | 14.5 | 0.00 | 0.10 | 0.10 | 90 | 1005.9 |
| 20260506225507 | 15 | 117 | 0.0 | 14.5 | 0.00 | 0.10 | 0.10 | 90 | 1006.0 |
| 20260506225010 | 15 | 356 | 0.0 | 3.2 | 0.00 | 0.10 | 0.10 | 90 | 1005.9 |
| 20260506224521 | 15 | 353 | 1.6 | 6.4 | 0.00 | 0.10 | 0.10 | 90 | 1006.0 |
| 20260506224005 | 15 | 346 | 0.0 | 6.4 | 0.00 | 0.10 | 0.10 | 90 | 1006.0 |
| 20260506223506 | 15 | 238 | 0.0 | 4.8 | 0.03 | 0.10 | 0.10 | 90 | 1006.1 |
| 20260506223017 | 15 | 234 | 1.6 | 12.9 | 0.03 | 0.10 | 0.10 | 90 | 1006.1 |
| 20260506222506 | 15 | 216 | 3.2 | 12.9 | 0.03 | 0.10 | 0.10 | 90 | 1006.1 |
| 20260506222008 | 15 | 288 | 1.6 | 6.4 | 0.03 | 0.10 | 0.10 | 90 | 1006.1 |
| 20260506221519 | 15 | 264 | 1.6 | 6.4 | 0.03 | 0.10 | 0.10 | 90 | 1006.3 |
| 20260506221007 | 15 | 287 | 0.0 | 6.4 | 0.03 | 0.10 | 0.10 | 90 | 1006.3 |
| 20260506220507 | 15 | 193 | 1.6 | 6.4 | 0.03 | 0.10 | 0.10 | 90 | 1006.4 |
| 20260506220021 | 15 | 23 | 0.0 | 8.0 | 0.03 | 0.10 | 0.10 | 90 | 1006.4 |
| 20260506215504 | 15 | 125 | 1.6 | 8.0 | 0.03 | 0.10 | 0.10 | 90 | 1006.4 |
| 20260506215007 | 15 | 17 | 0.0 | 3.2 | 0.03 | 0.10 | 0.10 | 89 | 1006.4 |
| 20260506214523 | 15 | 229 | 0.0 | 4.8 | 0.03 | 0.10 | 0.10 | 89 | 1006.4 |
| 20260506214008 | 15 | 120 | 1.6 | 4.8 | 0.03 | 0.10 | 0.10 | 88 | 1006.4 |
| 20260506213504 | 15 | 84 | 0.0 | 4.8 | 0.00 | 0.08 | 0.08 | 88 | 1006.6 |
| 20260506213022 | 15 | 335 | 1.6 | 6.4 | 0.00 | 0.08 | 0.08 | 87 | 1006.6 |
| 20260506212508 | 15 | 232 | 3.2 | 6.4 | 0.00 | 0.08 | 0.08 | 86 | 1006.8 |
| 20260506212011 | 16 | 236 | 3.2 | 6.4 | 0.00 | 0.08 | 0.08 | 86 | 1006.7 |
| 20260506211523 | 16 | 174 | 0.0 | 4.8 | 0.00 | 0.08 | 0.08 | 86 | 1006.7 |
| 20260506211006 | 16 | 65 | 1.6 | 4.8 | 0.00 | 0.08 | 0.08 | 85 | 1006.7 |
| 20260506210507 | 16 | 333 | 1.6 | 4.8 | 0.00 | 0.08 | 0.08 | 85 | 1006.7 |
| 20260506210023 | 16 | 264 | 0.0 | 9.7 | 0.00 | 0.08 | 0.08 | 84 | 1006.7 |
| 20260506205511 | 16 | 209 | 1.6 | 9.7 | 0.00 | 0.08 | 0.08 | 84 | 1006.7 |
| 20260506205003 | 16 | 96 | 3.2 | 6.4 | 0.00 | 0.08 | 0.08 | 84 | 1006.8 |
| 20260506204504 | 16 | 359 | 1.6 | 11.3 | 0.03 | 0.08 | 0.08 | 84 | 1006.9 |
| 20260506204004 | 16 | 212 | 1.6 | 12.9 | 0.03 | 0.08 | 0.08 | 85 | 1006.8 |
| 20260506203503 | 16 | 294 | 3.2 | 17.7 | 0.03 | 0.08 | 0.08 | 84 | 1007.0 |
| 20260506203008 | 16 | 252 | 3.2 | 17.7 | 0.03 | 0.08 | 0.08 | 84 | 1007.0 |
| 20260506202504 | 16 | 146 | 1.6 | 17.7 | 0.05 | 0.08 | 0.08 | 83 | 1007.0 |
| 20260506202009 | 16 | 217 | 3.2 | 17.7 | 0.05 | 0.08 | 0.08 | 83 | 1007.1 |
| 20260506201511 | 16 | 1 | 3.2 | 17.7 | 0.05 | 0.08 | 0.08 | 83 | 1007.0 |
| 20260506201007 | 16 | 213 | 3.2 | 8.0 | 0.08 | 0.08 | 0.08 | 84 | 1006.9 |
| 20260506200508 | 16 | 338 | 1.6 | 8.0 | 0.08 | 0.08 | 0.08 | 84 | 1006.8 |
| 20260506200017 | 16 | 250 | 1.6 | 6.4 | 0.08 | 0.08 | 0.08 | 84 | 1006.8 |
| 20260506195507 | 16 | 221 | 1.6 | 6.4 | 0.08 | 0.08 | 0.08 | 84 | 1006.9 |
| 20260506195006 | 16 | 350 | 1.6 | 4.8 | 0.08 | 0.08 | 0.08 | 84 | 1006.8 |
| 20260506194524 | 16 | 288 | 3.2 | 4.8 | 0.05 | 0.05 | 0.05 | 83 | 1006.8 |
| 20260506194004 | 16 | 316 | 0.0 | 11.3 | 0.05 | 0.05 | 0.05 | 83 | 1006.9 |
| 20260506193503 | 16 | 300 | 3.2 | 11.3 | 0.05 | 0.05 | 0.05 | 82 | 1006.9 |
| 20260506193007 | 16 | 124 | 0.0 | 8.0 | 0.05 | 0.05 | 0.05 | 83 | 1007.2 |